Regional Weather Roundup
Issued by NWS

Home | Current Version | Previous Version | Graphics & Text | Print | Product List | Glossary On
Versions: 1 2 3 4 5 6 7 8 9 10 11 12 13 14 15 16 17 18 19 20 21 22 23 24 25 26 27 28 29 30 31 32 33 34 35 36 37 38 39 40 41 42 43 44 45 46 47 48 49 50
000
ASUS43 KOAX 310510
RWRNE

WEATHER ROUNDUP FOR NEBRASKA
NATIONAL WEATHER SERVICE OMAHA NE
1200 AM CDT THU JUL 31 2014

NOTES: SATELLITE DATA IS BEING USED TO AUGMENT CLOUD COVER ABOVE
       12000 FEET.
       "FAIR" INDICATES FEW OR NO CLOUDS BELOW 12,000 FEET WITH NO
       SIGNIFICANT WEATHER AND/OR OBSTRUCTIONS TO VISIBILITY.

  * THESE STATIONS DO NOT REPORT WEATHER SUCH AS RAIN...SNOW OR FOG.

NEZ001>004-019>022-054>056-310600-
NEBRASKA PANHANDLE

CITY           SKY/WX    TMP DP  RH WIND       PRES   REMARKS
SCOTTSBLUFF    MOCLDY    65  58  78 CALM      30.23S
ALLIANCE       MOCLDY    61  56  83 W7        30.21F
CHADRON        MOCLDY    64  51  62 W8        30.17R
KIMBALL        CLOUDY    59  57  94 W5        30.28F
SIDNEY         MOCLDY    61  57  87 W10       30.28S
$$

NEZ057>060-069>072-079>082-310600-
SOUTHWEST NEBRASKA

CITY           SKY/WX    TMP DP  RH WIND       PRES   REMARKS
NORTH PLATTE   PTCLDY    60  55  83 CALM      30.18S
IMPERIAL       CLEAR     63  58  83 W7        30.23S
LEXINGTON      MOCLDY    64  59  84 CALM      30.17S
MCCOOK         MOCLDY    64  59  83 W6        30.20R
OGALLALA       PTCLDY    58  56  91 SW5       30.22S
$$

NEZ005>010-023>029-035>040-094-310600-
NORTH CENTRAL NEBRASKA

CITY           SKY/WX    TMP DP  RH WIND       PRES   REMARKS
VALENTINE      CLOUDY    71  52  50 SW10      30.11S
AINSWORTH      MOCLDY    65  54  65 S7        30.12F
BROKEN BOW     PTCLDY    59  56  89 CALM      30.16R
O`NEILL        CLEAR     66  60  79 SE6       30.14S
ORD            PTCLDY    64  58  80 SE3       30.13S
THEDFORD       MOCLDY    68  54  60 S8        30.17S
$$

NEZ041-046>049-061>064-073>077-083>087-310600-
SOUTH CENTRAL NEBRASKA

CITY           SKY/WX    TMP DP  RH WIND       PRES   REMARKS
GRAND ISLAND   PTCLDY    64  57  78 S8        30.15S
AURORA         PTCLDY    61  59  92 CALM      30.15S
HASTINGS       MOCLDY    68  53  58 S5        30.16R
HEBRON         PTCLDY    58  52  82 CALM      30.14S
HOLDREGE       MOCLDY    65  55  70 CALM      30.17R
KEARNEY *      MOCLDY    63  55  77 SE7       30.17R
YORK           PTCLDY    59  59 100 SW6       30.15S
$$

NEZ011>018-030>034-042>045-310600-
NORTHEAST NEBRASKA

CITY           SKY/WX    TMP DP  RH WIND       PRES   REMARKS
NORFOLK        CLEAR     61  56  83 CALM      30.12F
ALBION         CLEAR     61  56  85 CALM      30.14S
BLAIR          PTCLDY    65  52  63 CALM      30.12R
COLUMBUS *     CLEAR     59  54  82 CALM      30.13S
FREMONT        PTCLDY    65  57  75 CALM      30.13R
TEKAMAH        CLEAR     58  53  84 CALM      30.11S
WAYNE          CLEAR     58  56  92 CALM      30.13S
$$

NEZ050>053-065>068-078-088>093-310600-
SOUTHEAST NEBRASKA

CITY           SKY/WX    TMP DP  RH WIND       PRES   REMARKS
LINCOLN        PTCLDY    61  55  81 CALM      30.13R
OMAHA EPPLEY   PTCLDY    64  58  80 CALM      30.11S
BEATRICE       PTCLDY    61  56  83 CALM      30.13S
FALLS CITY     CLEAR     62  57  83 CALM      30.11S
NEBRASKA CITY  PTCLDY    67  55  65 CALM      30.12S
PLATTSMOUTH    MOCLDY    66  56  71 SE3       30.12S
$$

NEZ044-045-051>053-067-310600-
OMAHA AREA

CITY           SKY/WX    TMP DP  RH WIND       PRES   REMARKS
OMAHA EPPLEY   PTCLDY    64  58  80 CALM      30.11S
BLAIR          PTCLDY    65  52  63 CALM      30.12R
FREMONT        PTCLDY    65  57  75 CALM      30.13R
MILLARD        PTCLDY    63  58  84 CALM      30.11R
OFFUTT AFB     PTCLDY    57  57  99 CALM      30.11S
PLATTSMOUTH    MOCLDY    66  56  71 SE3       30.12S
WAHOO          FAIR      61  56  85 CALM      30.12R
$$


USA.gov is the U.S. government's official web portal to all federal, state and local government web resources and services.